QPF
0.00 0.00 0.00 0.00 0.00 0.00 0.01 0.00 0.01 0.04 0.02 0.00 0.11 0.20 0.05 0.02 0.01 0.00 0.02 0.05 0.04 0.01 0.04 0.06 0.08 0.06 0.10 0.06 0.04 0.02 0.01 0.02 0.02 0.02 0.02 0.02 0.03 0.01 0.01 0.02 0.03 0.02 0.03
0.00 0.00 0.00 0.00 0.00 0.00 0.00 0.02 0.00 0.00 0.04 0.03 0.07 0.28 0.20 0.15 0.04 0.04 0.03 0.05 0.06 0.04 0.07 0.14 0.15 0.14 0.13 0.10 0.07 0.02 0.01 0.01 0.01 0.02 0.00 0.02 0.03 0.02 0.02 0.03 0.05 0.02 0.03
0.00 0.00 0.00 0.00 0.00 0.00 0.00 0.01 0.01 0.00 0.00 0.03 0.12 0.20 0.32 0.31 0.11 0.18 0.07 0.06 0.05 0.06 0.09 0.18 0.20 0.16 0.09 0.05 0.02 0.00 0.00 0.00 0.00 0.00 0.00 0.00 0.01 0.04 0.02 0.01 0.06 0.04 0.01
0.00 0.00 0.00 0.00 0.00 0.00 0.00 0.00 0.00 0.03 0.03 0.04 0.07 0.18 0.08 0.21 0.20 0.10 0.14 0.08 0.06 0.05 0.07 0.22 0.20 0.17 0.11 0.03 0.02 0.00 0.00 0.00 0.00 0.00 0.00 0.00 0.00 0.03 0.02 0.03 0.06 0.03 0.01
0.00 0.00 0.00 0.00 0.00 0.00 0.00 0.00 0.01 0.04 0.07 0.11 0.04 0.15 0.18 0.23 0.28 0.24 0.20 0.15 0.07 0.02 0.05 0.08 0.12 0.12 0.12 0.07 0.02 0.00 0.00 0.00 0.00 0.00 0.00 0.00 0.01 0.07 0.05 0.01 0.01 0.02 0.01
0.00 0.00 0.00 0.00 0.00 0.00 0.00 0.00 0.09 0.09 0.02 0.05 0.04 0.07 0.20 0.21 0.34 0.37 0.20 0.13 0.04 0.03 0.07 0.04 0.02 0.04 0.10 0.09 0.01 0.00 0.00 0.00 0.00 0.00 0.00 0.00 0.02 0.13 0.08 0.02 0.02 0.04 0.03
0.00 0.00 0.00 0.01 0.01 0.01 0.00 0.02 0.16 0.04 0.04 0.08 0.06 0.15 0.21 0.23 0.27 0.23 0.09 0.06 0.02 0.01 0.02 0.01 0.00 0.01 0.07 0.02 0.00 0.00 0.00 0.00 0.00 0.00 0.00 0.00 0.02 0.05 0.06 0.03 0.01 0.02 0.02
0.00 0.00 0.00 0.01 0.00 0.00 0.00 0.00 0.02 0.02 0.01 0.00 0.02 0.11 0.10 0.20 0.15 0.10 0.04 0.01 0.01 0.01 0.00 0.00 0.00 0.01 0.00 0.02 0.00 0.00 0.00 0.00 0.00 0.00 0.00 0.00 0.00 0.00 0.00 0.00 0.01 0.01 0.02
0.00 0.00 0.00 0.00 0.00 0.00 0.01 0.01 0.03 0.03 0.00 0.01 0.03 0.07 0.02 0.05 0.04 0.04 0.04 0.01 0.00 0.00 0.00 0.00 0.00 0.01 0.00 0.01 0.00 0.00 0.00 0.00 0.00 0.00 0.00 0.00 0.00 0.00 0.00 0.00 0.00 0.00 0.00
0.00 0.00 0.00 0.00 0.00 0.00 0.01 0.01 0.02 0.03 0.00 0.00 0.00 0.01 0.00 0.00 0.03 0.02 0.03 0.02 0.01 0.00 0.00 0.00 0.00 0.00 0.00 0.00 0.00 0.00 0.00 0.00 0.00 0.00 0.00 0.00 0.00 0.00 0.00 0.00 0.00 0.00 0.00
0.00 0.00 0.00 0.00 0.00 0.00 0.00 0.00 0.00 0.00 0.00 0.00 0.01 0.01 0.00 0.00 0.00 0.00 0.00 0.00 0.00 0.00 0.00 0.00 0.00 0.00 0.00 0.00 0.00 0.00 0.00 0.00 0.00 0.00 0.00 0.00 0.00 0.00 0.00 0.00 0.00 0.00 0.00
0.00 0.00 0.00 0.00 0.00 0.00 0.00 0.00 0.00 0.00 0.00 0.00 0.00 0.00 0.00 0.00 0.00 0.00 0.00 0.00 0.00 0.00 0.00 0.00 0.00 0.00 0.00 0.00 0.00 0.00 0.00 0.00 0.00 0.00 0.00 0.01 0.00 0.00 0.00 0.00 0.00 0.00 0.00
0.00 0.00 0.00 0.00 0.00 0.00 0.00 0.00 0.00 0.00 0.00 0.00 0.00 0.00 0.00 0.00 0.00 0.00 0.00 0.00 0.00 0.00 0.00 0.00 0.00 0.00 0.00 0.00 0.00 0.00 0.00 0.00 0.00 0.00 0.00 0.00 0.00 0.00 0.00 0.00 0.00 0.00 0.00
0.00 0.00 0.00 0.00 0.00 0.00 0.00 0.00 0.00 0.00 0.00 0.00 0.00 0.00 0.00 0.00 0.00 0.00 0.00 0.00 0.00 0.00 0.00 0.00 0.00 0.00 0.00 0.00 0.00 0.00 0.00 0.00 0.00 0.00 0.00 0.00 0.00 0.00 0.00 0.00 0.00 0.00 0.00
0.00 0.00 0.00 0.00 0.00 0.00 0.00 0.00 0.00 0.00 0.00 0.00 0.00 0.00 0.00 0.00 0.00 0.00 0.00 0.00 0.00 0.00 0.00 0.00 0.00 0.00 0.00 0.00 0.00 0.00 0.00 0.00 0.00 0.00 0.00 0.00 0.00 0.00 0.00 0.00 0.00 0.00 0.00
0.00 0.00 0.00 0.00 0.00 0.00 0.00 0.00 0.00 0.00 0.00 0.00 0.00 0.00 0.00 0.00 0.00 0.00 0.00 0.00 0.00 0.00 0.00 0.00 0.00 0.00 0.00 0.00 0.00 0.00 0.00 0.00 0.00 0.00 0.00 0.00 0.00 0.00 0.00 0.00 0.00 0.00 0.00
0.00 0.00 0.00 0.00 0.00 0.00 0.00 0.00 0.00 0.00 0.00 0.00 0.00 0.00 0.00 0.00 0.00 0.00 0.00 0.00 0.00 0.00 0.00 0.00 0.00 0.00 0.00 0.00 0.00 0.00 0.00 0.00 0.00 0.00 0.00 0.00 0.00 0.00 0.00 0.00 0.00 0.00 0.00
0.00 0.00 0.00 0.00 0.00 0.00 0.00 0.00 0.00 0.00 0.00 0.00 0.00 0.00 0.00 0.00 0.00 0.00 0.00 0.00 0.00 0.00 0.00 0.00 0.00 0.00 0.00 0.00 0.00 0.00 0.00 0.00 0.00 0.00 0.00 0.00 0.00 0.00 0.00 0.00 0.00 0.00 0.00
0.00 0.00 0.00 0.00 0.00 0.00 0.00 0.00 0.00 0.00 0.00 0.00 0.00 0.00 0.00 0.00 0.00 0.00 0.00 0.00 0.00 0.00 0.00 0.00 0.00 0.00 0.00 0.00 0.00 0.00 0.00 0.00 0.00 0.00 0.00 0.00 0.00 0.00 0.00 0.00 0.00 0.00 0.00
0.00 0.00 0.00 0.00 0.00 0.00 0.00 0.00 0.00 0.00 0.00 0.00 0.00 0.00 0.00 0.00 0.00 0.00 0.00 0.00 0.00 0.00 0.00 0.00 0.00 0.00 0.00 0.00 0.00 0.00 0.00 0.00 0.00 0.00 0.00 0.00 0.00 0.00 0.00 0.00 0.00 0.00 0.00
0.00 0.00 0.00 0.00 0.00 0.00 0.00 0.00 0.00 0.00 0.00 0.00 0.00 0.00 0.00 0.00 0.00 0.00 0.00 0.00 0.00 0.00 0.00 0.00 0.00 0.00 0.00 0.00 0.00 0.00 0.00 0.00 0.00 0.00 0.00 0.00 0.00 0.00 0.00 0.00 0.00 0.00 0.00
0.00 0.00 0.00 0.00 0.00 0.00 0.00 0.00 0.00 0.00 0.00 0.00 0.00 0.00 0.00 0.00 0.00 0.00 0.00 0.00 0.00 0.00 0.00 0.00 0.00 0.00 0.00 0.00 0.00 0.00 0.00 0.00 0.00 0.00 0.00 0.00 0.00 0.00 0.00 0.00 0.00 0.00 0.00
0.00 0.00 0.00 0.00 0.00 0.00 0.00 0.00 0.00 0.00 0.00 0.00 0.00 0.00 0.00 0.00 0.00 0.00 0.00 0.00 0.00 0.00 0.00 0.00 0.00 0.00 0.00 0.00 0.00 0.00 0.00 0.00 0.00 0.00 0.00 0.00 0.00 0.00 0.00 0.00 0.00 0.00 0.00
0.00 0.00 0.00 0.00 0.00 0.00 0.00 0.00 0.00 0.00 0.00 0.00 0.00 0.00 0.00 0.00 0.00 0.00 0.00 0.00 0.00 0.00 0.00 0.00 0.00 0.00 0.00 0.00 0.00 0.00 0.00 0.00 0.00 0.00 0.00 0.00 0.00 0.00 0.00 0.00 0.00 0.00 0.00
0.00 0.00 0.00 0.00 0.00 0.00 0.00 0.00 0.00 0.00 0.00 0.00 0.00 0.00 0.00 0.00 0.00 0.00 0.00 0.00 0.00 0.00 0.00 0.00 0.00 0.00 0.00 0.00 0.00 0.00 0.00 0.00 0.00 0.00 0.00 0.00 0.00 0.00 0.00 0.00 0.00 0.00 0.00
0.00 0.00 0.00 0.00 0.00 0.00 0.00 0.00 0.00 0.00 0.00 0.00 0.00 0.00 0.00 0.00 0.00 0.00 0.00 0.00 0.00 0.00 0.00 0.00 0.00 0.00 0.00 0.00 0.00 0.00 0.00 0.00 0.00 0.00 0.00 0.00 0.00 0.00 0.00 0.00 0.00 0.00 0.00
MSLP
1008.48 1008.40 1008.27 1008.43 1008.53 1008.54 1008.43 1008.65 1008.96 1009.22 1009.19 1009.36 1009.32 1009.21 1009.33 1009.48 1009.69 1009.79 1010.15 1010.29 1010.38 1010.38 1010.63 1010.80 1010.98 1011.15 1011.61 1011.55 1011.97 1012.34 1012.60 1012.87 1013.12 1013.38 1013.46 1013.56 1013.55 1013.82 1013.85 1014.05 1014.07 1014.24 1014.31
1008.01 1008.25 1008.25 1008.44 1008.63 1008.61 1008.66 1008.74 1008.98 1009.18 1009.20 1009.21 1009.20 1009.29 1009.46 1009.44 1009.96 1009.94 1010.12 1010.41 1010.68 1010.62 1010.81 1010.98 1011.23 1011.39 1011.87 1011.90 1012.31 1012.72 1013.04 1013.34 1013.63 1013.93 1014.01 1014.05 1014.12 1014.19 1014.38 1014.54 1014.55 1014.69 1014.78
1008.12 1008.36 1008.56 1008.52 1008.60 1008.73 1008.87 1008.90 1008.91 1009.03 1009.19 1009.21 1009.17 1009.81 1008.58 1009.68 1009.70 1010.20 1010.27 1010.23 1010.61 1010.85 1011.14 1011.33 1011.68 1011.77 1012.07 1012.35 1012.59 1013.04 1013.52 1013.81 1014.05 1014.35 1014.50 1014.57 1014.57 1014.65 1014.76 1015.01 1015.02 1015.13 1015.27
1008.23 1008.36 1008.52 1008.58 1008.71 1008.75 1008.93 1008.93 1008.93 1009.02 1009.20 1009.27 1009.29 1009.53 1010.19 1009.73 1010.36 1010.36 1010.22 1010.55 1010.75 1011.03 1011.51 1011.99 1012.24 1012.43 1012.44 1012.82 1013.07 1013.39 1013.91 1014.12 1014.41 1014.68 1014.92 1014.95 1014.98 1015.02 1015.26 1015.39 1015.48 1015.63 1015.72
1008.19 1008.11 1008.49 1008.61 1008.74 1008.86 1008.90 1008.90 1008.94 1009.10 1009.16 1009.22 1009.42 1009.79 1009.91 1010.41 1010.41 1010.54 1010.56 1010.92 1011.20 1011.20 1011.99 1012.46 1012.70 1012.88 1013.09 1013.29 1013.59 1014.05 1014.36 1014.57 1014.78 1015.10 1015.33 1015.51 1015.46 1015.45 1015.65 1015.82 1016.05 1016.21 1016.29
1008.05 1008.04 1008.23 1008.38 1008.64 1008.83 1008.88 1008.84 1008.89 1009.08 1009.03 1009.12 1009.39 1009.76 1010.08 1010.36 1010.54 1010.51 1010.70 1011.27 1011.52 1011.58 1012.31 1012.55 1012.59 1013.07 1013.67 1013.88 1014.25 1014.58 1014.87 1015.07 1015.18 1015.57 1015.80 1015.98 1016.09 1016.05 1016.18 1016.35 1016.54 1016.69 1016.87
1008.05 1007.96 1007.99 1008.15 1008.41 1008.71 1008.76 1008.81 1008.86 1008.90 1008.80 1009.02 1009.44 1009.83 1010.22 1010.51 1010.54 1010.60 1011.04 1011.43 1011.77 1012.07 1012.66 1013.02 1013.27 1013.29 1013.88 1014.43 1014.83 1015.08 1015.33 1015.62 1015.71 1016.08 1016.25 1016.33 1016.41 1016.48 1016.54 1016.79 1017.01 1017.14 1017.30
1008.09 1008.05 1008.09 1008.31 1008.54 1008.77 1008.87 1008.79 1008.70 1008.90 1008.91 1008.97 1009.53 1010.37 1010.01 1010.63 1010.60 1010.81 1011.03 1011.49 1012.21 1012.69 1013.09 1013.48 1013.51 1013.61 1014.07 1014.91 1015.21 1015.59 1015.81 1016.10 1016.32 1016.57 1016.60 1016.60 1016.80 1016.93 1017.13 1017.37 1017.60 1017.72 1017.91
1008.23 1008.33 1008.44 1008.69 1008.72 1008.98 1008.89 1008.68 1008.87 1009.16 1009.43 1009.52 1009.99 1010.46 1010.29 1009.55 1008.86 1010.41 1011.44 1011.95 1012.48 1013.34 1013.72 1014.01 1014.16 1014.37 1014.85 1015.20 1015.62 1016.08 1016.36 1016.53 1016.80 1016.98 1017.07 1017.22 1017.37 1017.54 1017.66 1017.98 1018.17 1018.39 1018.66
1008.60 1008.63 1008.80 1009.01 1009.17 1009.40 1009.15 1008.98 1009.32 1009.59 1009.98 1010.35 1010.73 1010.88 1011.02 1010.79 1011.34 1011.99 1011.86 1012.77 1013.39 1014.10 1014.39 1014.56 1014.79 1015.07 1015.50 1015.78 1016.04 1016.53 1016.90 1017.11 1017.32 1017.50 1017.64 1017.72 1017.84 1017.95 1018.18 1018.59 1018.76 1018.95 1019.27
1008.78 1008.89 1008.92 1009.31 1009.70 1009.75 1009.75 1009.82 1010.02 1010.25 1010.56 1011.07 1011.32 1011.87 1011.87 1012.12 1011.71 1013.27 1013.23 1013.64 1014.33 1014.79 1015.07 1014.95 1015.18 1015.62 1016.26 1016.58 1016.67 1017.04 1017.48 1017.82 1017.94 1018.17 1018.11 1018.08 1018.21 1018.48 1018.81 1019.14 1019.47 1019.76 1020.07
1008.69 1008.93 1009.03 1009.41 1009.94 1010.17 1010.29 1010.41 1010.55 1010.96 1011.23 1011.65 1012.09 1012.40 1012.73 1012.83 1012.43 1013.54 1014.18 1014.51 1014.98 1015.50 1015.70 1015.78 1015.78 1016.55 1017.05 1017.37 1017.74 1017.67 1018.20 1018.50 1018.51 1018.63 1018.53 1018.50 1018.74 1019.16 1019.61 1019.88 1020.17 1020.37 1020.65
1008.58 1008.91 1009.24 1009.58 1009.98 1010.40 1010.78 1010.97 1011.28 1011.60 1011.89 1012.19 1012.44 1012.83 1013.10 1013.31 1013.72 1014.25 1014.97 1015.31 1015.90 1016.33 1016.28 1016.63 1016.65 1017.46 1017.86 1017.83 1018.39 1018.58 1018.85 1019.11 1019.13 1019.01 1019.00 1019.23 1019.60 1019.88 1020.22 1020.58 1020.85 1021.10 1021.22
1008.36 1008.86 1009.33 1009.70 1010.14 1010.68 1011.02 1011.39 1011.76 1012.04 1012.48 1012.92 1013.00 1013.00 1013.21 1013.97 1014.89 1015.48 1015.97 1016.17 1016.52 1017.04 1016.88 1017.25 1017.44 1018.04 1018.39 1018.49 1018.79 1019.19 1019.41 1019.77 1019.82 1019.65 1019.54 1019.97 1020.32 1020.48 1020.84 1021.11 1021.35 1021.61 1022.01
1008.19 1008.64 1009.19 1009.71 1010.29 1010.96 1011.39 1011.81 1012.09 1012.37 1012.81 1013.39 1013.74 1013.90 1013.99 1014.31 1015.09 1015.96 1016.76 1016.98 1017.16 1017.53 1017.48 1017.78 1018.11 1018.38 1018.69 1019.37 1019.44 1019.65 1019.97 1020.65 1020.53 1020.38 1020.49 1020.90 1021.07 1021.26 1021.40 1021.61 1021.87 1022.12 1022.53
1007.79 1008.14 1008.84 1009.46 1010.10 1010.88 1011.56 1012.08 1012.41 1012.55 1012.88 1013.46 1014.12 1014.42 1014.61 1014.84 1015.50 1016.09 1016.86 1017.48 1017.80 1017.98 1018.18 1018.38 1018.67 1018.77 1019.54 1019.93 1020.38 1020.36 1021.02 1021.26 1021.32 1021.29 1021.35 1021.60 1021.97 1022.20 1022.32 1022.39 1022.59 1022.76 1022.98
1006.76 1007.61 1008.34 1009.20 1009.91 1010.58 1011.41 1012.09 1012.76 1013.01 1013.12 1013.57 1013.98 1014.75 1015.31 1015.63 1015.99 1016.56 1017.29 1017.78 1018.06 1018.22 1018.38 1018.71 1019.23 1019.65 1020.47 1020.58 1021.25 1021.55 1021.60 1021.79 1022.28 1022.20 1022.30 1022.91 1023.20 1023.22 1023.41 1023.46 1023.55 1023.57 1023.52
1006.65 1007.37 1008.16 1008.75 1009.53 1010.41 1011.20 1011.97 1012.62 1013.24 1013.47 1013.68 1014.06 1014.52 1015.22 1015.90 1016.60 1017.28 1017.79 1018.29 1018.49 1018.36 1018.92 1019.11 1019.65 1020.13 1020.81 1021.28 1021.92 1022.34 1022.44 1022.70 1023.02 1023.10 1023.36 1023.79 1024.01 1024.37 1024.33 1024.33 1024.25 1024.26 1024.15
1006.11 1006.99 1007.77 1008.48 1009.26 1010.07 1011.09 1011.85 1012.47 1013.13 1013.63 1013.97 1014.33 1014.70 1015.16 1015.72 1016.28 1017.12 1018.04 1018.59 1018.63 1019.01 1019.63 1019.79 1020.23 1020.64 1021.36 1022.15 1022.51 1023.16 1023.49 1023.51 1023.61 1023.86 1024.25 1024.48 1024.65 1024.93 1025.20 1025.19 1025.09 1024.97 1024.94
1006.02 1006.67 1007.48 1008.22 1009.08 1010.00 1010.97 1011.94 1012.69 1013.33 1013.82 1014.22 1014.49 1014.87 1015.44 1015.88 1016.43 1016.80 1017.75 1018.54 1018.90 1019.87 1020.12 1020.30 1020.93 1021.56 1021.86 1022.37 1023.12 1023.93 1024.15 1024.44 1024.55 1024.68 1024.82 1025.01 1025.33 1025.38 1025.63 1025.98 1025.97 1025.78 1025.49
1005.72 1006.39 1006.98 1007.81 1008.94 1009.68 1010.87 1011.85 1012.87 1013.39 1014.00 1014.49 1014.83 1015.10 1015.43 1015.86 1016.49 1016.97 1017.77 1018.31 1018.99 1019.56 1020.34 1021.11 1021.78 1022.06 1022.76 1022.74 1023.13 1024.45 1024.90 1025.07 1025.08 1025.15 1025.35 1025.55 1025.78 1025.96 1026.07 1026.18 1026.37 1026.53 1026.48
1005.32 1005.95 1006.67 1007.39 1008.33 1009.46 1010.16 1011.21 1012.06 1013.04 1013.99 1014.44 1014.99 1015.43 1015.75 1015.94 1016.50 1017.26 1017.80 1018.45 1018.85 1019.57 1020.30 1020.93 1021.32 1022.04 1022.60 1022.66 1023.54 1024.83 1025.71 1025.87 1025.84 1025.65 1025.66 1025.77 1026.13 1026.30 1026.31 1026.55 1026.65 1026.83 1026.99
1005.84 1006.05 1006.51 1007.11 1007.93 1009.04 1009.94 1011.12 1012.47 1013.42 1014.19 1014.77 1015.18 1015.48 1015.94 1016.22 1016.79 1017.25 1017.52 1017.67 1018.67 1018.93 1019.83 1020.13 1020.50 1021.33 1022.33 1023.02 1023.01 1023.46 1025.44 1025.90 1026.01 1026.11 1025.96 1026.26 1026.25 1026.52 1026.49 1026.90 1027.07 1026.99 1027.09
1007.12 1006.32 1006.66 1007.46 1008.08 1009.02 1009.87 1010.47 1011.45 1012.77 1013.85 1014.51 1014.93 1015.50 1016.03 1016.61 1016.93 1017.39 1017.87 1017.78 1018.58 1019.28 1019.74 1020.35 1020.50 1020.62 1021.26 1022.47 1023.38 1023.28 1023.54 1024.33 1025.56 1026.47 1026.27 1026.35 1026.49 1026.66 1026.69 1026.88 1027.03 1027.25 1027.45
1008.21 1007.33 1006.97 1007.58 1008.34 1009.16 1009.90 1010.67 1011.30 1012.44 1013.51 1014.23 1014.98 1015.55 1016.04 1016.44 1017.06 1017.48 1017.90 1018.12 1018.72 1019.26 1019.82 1020.28 1020.82 1021.27 1021.50 1022.32 1023.03 1023.53 1023.84 1024.43 1024.69 1025.44 1026.24 1026.46 1026.58 1026.58 1026.86 1027.02 1027.14 1027.27 1027.35
1009.25 1008.72 1008.38 1008.42 1008.88 1009.53 1010.16 1010.89 1011.51 1012.35 1013.36 1014.37 1015.11 1015.68 1016.15 1016.59 1016.98 1017.24 1017.92 1018.43 1018.77 1019.88 1019.86 1020.48 1020.64 1021.27 1021.95 1022.55 1023.11 1023.60 1024.09 1024.54 1024.82 1024.98 1025.87 1026.38 1026.64 1026.86 1026.86 1026.96 1027.23 1027.35 1027.51
Thickness
5706 5705 5703 5701 5699 5699 5698 5695 5690 5687 5687 5684 5685 5686 5688 5689 5689 5690 5690 5692 5694 5697 5698 5700 5701 5703 5700 5703 5702 5701 5702 5702 5701 5700 5702 5704 5706 5705 5708 5706 5708 5708 5710
5706 5703 5700 5697 5694 5693 5692 5689 5686 5683 5682 5681 5681 5682 5681 5681 5679 5684 5686 5687 5687 5692 5693 5694 5695 5696 5695 5696 5694 5695 5695 5696 5695 5694 5697 5699 5700 5701 5701 5701 5704 5704 5705
5703 5698 5694 5693 5691 5688 5685 5683 5683 5681 5678 5676 5677 5670 5666 5672 5678 5678 5682 5686 5684 5686 5686 5687 5688 5689 5690 5690 5689 5689 5688 5688 5690 5690 5691 5694 5696 5696 5697 5696 5698 5700 5700
5698 5695 5692 5688 5685 5684 5681 5679 5679 5676 5673 5671 5671 5668 5660 5668 5668 5674 5677 5679 5680 5682 5679 5678 5678 5680 5683 5683 5683 5682 5683 5686 5686 5687 5687 5689 5690 5692 5691 5691 5693 5694 5696
5695 5695 5689 5685 5681 5679 5677 5676 5675 5671 5669 5668 5666 5662 5664 5662 5667 5670 5668 5672 5672 5677 5672 5670 5670 5674 5673 5675 5677 5678 5678 5681 5682 5681 5682 5683 5685 5687 5687 5687 5687 5688 5690
5693 5691 5687 5683 5679 5675 5674 5673 5671 5667 5667 5666 5664 5661 5660 5661 5663 5666 5665 5666 5667 5670 5666 5669 5666 5665 5666 5667 5669 5671 5673 5675 5677 5676 5676 5677 5679 5680 5681 5682 5682 5684 5684
5690 5688 5685 5681 5677 5673 5671 5669 5668 5665 5665 5665 5661 5658 5657 5657 5660 5661 5661 5662 5662 5661 5660 5661 5660 5665 5661 5659 5662 5665 5668 5670 5672 5671 5673 5674 5675 5676 5677 5677 5678 5679 5679
5686 5684 5681 5676 5673 5669 5668 5667 5666 5663 5661 5662 5657 5652 5658 5653 5656 5656 5660 5659 5656 5654 5653 5655 5658 5661 5659 5655 5658 5660 5663 5665 5666 5667 5669 5671 5670 5671 5671 5672 5672 5673 5674
5683 5678 5675 5670 5668 5665 5664 5666 5662 5659 5655 5655 5650 5650 5651 5657 5661 5659 5654 5654 5652 5647 5646 5648 5651 5651 5652 5652 5653 5655 5657 5659 5661 5663 5664 5665 5664 5665 5666 5666 5666 5666 5666
5676 5673 5670 5666 5662 5660 5660 5660 5656 5654 5649 5645 5641 5643 5643 5646 5635 5644 5650 5645 5642 5639 5640 5641 5642 5644 5643 5646 5649 5650 5651 5653 5656 5657 5658 5658 5659 5660 5661 5660 5660 5660 5660
5671 5667 5665 5661 5656 5655 5653 5651 5648 5646 5642 5637 5635 5630 5631 5632 5638 5628 5634 5634 5631 5629 5631 5635 5635 5637 5635 5638 5642 5644 5645 5647 5649 5650 5651 5652 5653 5653 5653 5653 5653 5653 5652
5667 5663 5661 5657 5651 5649 5647 5644 5642 5638 5635 5630 5628 5626 5623 5623 5631 5622 5624 5622 5622 5621 5622 5624 5626 5624 5627 5630 5631 5637 5638 5639 5642 5644 5645 5646 5646 5645 5644 5644 5644 5644 5644
5663 5659 5655 5652 5647 5644 5641 5638 5635 5631 5628 5623 5622 5620 5619 5619 5618 5614 5614 5615 5615 5612 5617 5617 5619 5616 5619 5624 5623 5627 5630 5630 5632 5635 5636 5637 5636 5637 5636 5636 5636 5636 5636
5660 5655 5650 5647 5643 5638 5636 5633 5631 5627 5622 5617 5616 5617 5617 5612 5606 5603 5603 5606 5607 5605 5609 5609 5610 5610 5612 5614 5615 5617 5620 5621 5623 5626 5628 5628 5627 5629 5629 5628 5628 5629 5627
5656 5651 5647 5642 5637 5632 5629 5626 5625 5624 5619 5613 5608 5605 5606 5605 5601 5596 5594 5595 5597 5598 5601 5601 5602 5603 5605 5603 5606 5609 5611 5610 5614 5617 5617 5617 5618 5619 5620 5620 5620 5620 5618
5653 5649 5644 5639 5634 5628 5623 5620 5618 5618 5617 5612 5607 5603 5601 5600 5594 5590 5587 5586 5588 5591 5592 5592 5594 5596 5593 5592 5593 5598 5599 5601 5604 5606 5607 5607 5606 5607 5608 5609 5610 5610 5610
5655 5648 5643 5636 5631 5626 5620 5614 5610 5609 5609 5607 5606 5601 5595 5591 5590 5586 5580 5580 5582 5582 5585 5586 5585 5585 5579 5583 5582 5583 5586 5589 5589 5595 5595 5594 5593 5594 5594 5595 5596 5598 5601
5648 5644 5637 5634 5628 5622 5615 5610 5606 5603 5602 5601 5599 5597 5592 5589 5584 5579 5575 5572 5573 5578 5574 5578 5577 5575 5571 5572 5571 5572 5576 5578 5578 5582 5582 5582 5583 5582 5582 5583 5586 5588 5591
5643 5637 5633 5628 5623 5618 5611 5605 5601 5598 5597 5595 5593 5591 5590 5586 5583 5578 5572 5570 5571 5569 5564 5566 5564 5566 5563 5560 5563 5562 5563 5567 5569 5570 5572 5572 5573 5573 5573 5573 5576 5579 5580
5634 5630 5625 5621 5616 5610 5604 5598 5592 5589 5588 5588 5586 5584 5580 5580 5578 5577 5570 5564 5563 5556 5557 5557 5553 5551 5554 5554 5551 5548 5551 5553 5556 5558 5560 5561 5561 5563 5563 5563 5566 5568 5569
5625 5623 5620 5615 5607 5604 5595 5590 5583 5583 5578 5577 5576 5576 5575 5573 5571 5571 5563 5562 5558 5555 5550 5545 5542 5544 5541 5544 5544 5537 5537 5541 5545 5547 5549 5550 5550 5551 5553 5554 5555 5556 5557
5618 5616 5612 5608 5602 5594 5592 5586 5582 5577 5570 5568 5566 5566 5567 5569 5566 5559 5558 5554 5552 5549 5545 5543 5542 5539 5538 5540 5536 5528 5526 5529 5532 5537 5538 5538 5539 5540 5543 5543 5544 5545 5546
5601 5604 5602 5599 5592 5586 5583 5576 5568 5562 5559 5557 5558 5557 5556 5556 5553 5552 5552 5556 5550 5550 5544 5543 5543 5539 5533 5531 5535 5535 5516 5522 5522 5525 5529 5528 5530 5530 5533 5531 5532 5534 5536
5574 5586 5589 5582 5578 5574 5571 5569 5566 5560 5554 5551 5549 5546 5543 5541 5541 5540 5540 5544 5542 5540 5536 5534 5535 5536 5534 5528 5524 5530 5530 5526 5519 5516 5519 5519 5520 5521 5522 5523 5522 5522 5523
5551 5561 5572 5570 5563 5558 5556 5555 5555 5550 5543 5542 5538 5535 5533 5533 5531 5530 5531 5532 5532 5529 5527 5527 5524 5523 5524 5521 5517 5515 5517 5515 5516 5513 5509 5509 5510 5512 5511 5512 5512 5512 5512
5528 5536 5544 5546 5545 5543 5541 5539 5539 5534 5530 5527 5524 5523 5523 5523 5523 5523 5521 5519 5518 5514 5518 5516 5517 5516 5514 5510 5509 5507 5506 5506 5505 5505 5500 5497 5497 5498 5499 5500 5499 5500 5500